Location: New Plymouth
(39.0670°S, 174.0830°E)
Time: 09:58:20
(UTC+12:00)

ISS - Pass Details

Date: 24 May 2021
Orbit: 417 x 422 km, 51.6° (Epoch: 17 June)

Event Time Altitude Azimuth Distance (km) Brightness Sun altitude
Exits shadow 05:44:43 58° 328° (NNW) 503 -3.6 -19.6°
Maximum altitude 05:45:17 80° 40° (NE) 441 -3.7 -19.5°
Drops below altitude 10° 05:48:44 10° 126° (SE) 1,533 -0.3 -18.9°
Sets 05:50:51 0° 127° (SE) 2,404 0.7 -18.5°
